Regional Weather Roundup
Issued by NWS Green Bay, WI

Home | Current Version | Previous Version | Graphics & Text | Print | Product List | Glossary Off
Versions: 1 2 3 4 5 6 7 8 9 10 11 12 13 14 15 16 17 18 19 20 21 22 23 24 25 26 27 28 29 30 31 32 33 34 35 36 37 38 39 40 41 42 43 44 45 46 47 48 49 50

555
ASUS43 KGRB 240200
RWRGRB

NORTH-CENTRAL AND NORTHEAST WISCONSIN REGIONAL WEATHER ROUNDUP
NATIONAL WEATHER SERVICE GREEN BAY WI
900 PM CDT THU MAR 23 2017

WIZ005-009-010>012-018-019-240300-
NORTH CENTRAL WISCONSIN

CITY           SKY/WX    TMP DP  RH WIND       PRES   REMARKS
IRONWOOD       LGT RAIN  36  26  67 SW3       29.91R
MANITOWISH WTR NOT AVBL
ARBOR VITAE    NOT AVBL
EAGLE RIVER    NOT AVBL
LAND O LAKES   NOT AVBL
RHINELANDER    LGT RAIN  37  25  61 S6        29.89F
PHILLIPS       NOT AVBL
ANTIGO         NOT AVBL
TOMAHAWK       NOT AVBL
MERRILL        NOT AVBL
$$

WIZ013-073-240300-
NORTHEAST WISCONSIN

CITY           SKY/WX    TMP DP  RH WIND       PRES   REMARKS
IRON MOUNTAIN  CLOUDY    32  25  75 SE7       29.95F
MARINETTE        N/A    N/A N/A N/A MISG        N/A
$$

WIZ017-030-035>037-045-240300-
CENTRAL WISCONSIN

CITY           SKY/WX    TMP DP  RH WIND       PRES   REMARKS
MEDFORD        NOT AVBL
WAUSAU         CLOUDY    36  28  73 S13       29.91S
MOSINEE        CLOUDY    36  28  75 SE10G16   29.91F
MARSHFIELD     CLOUDY    38  28  67 S14       29.90R
WISC RAPIDS    CLOUDY    39  30  70 SE8       29.93F
STEVENS POINT  NOT AVBL
WAUPACA        NOT AVBL
SHAWANO        NOT AVBL
CLINTONVILLE   NOT AVBL
WAUTOMA        CLOUDY    38  32  79 S6        29.97S
$$

WIZ038-039-048-051-240300-
FOX VALLEY

CITY           SKY/WX    TMP DP  RH WIND       PRES   REMARKS
NWS GREEN BAY  CLOUDY    37  29  72 S13       30.00F
APPLETON       LGT RAIN  36  28  75 SE10      29.97F
OSHKOSH        CLOUDY    37  30  75 VRB5      29.98F
FOND DU LAC    CLOUDY    38  29  70 S17       29.94F
$$

WIZ022-050-052-240300-
EAST CENTRAL WISCONSIN

CITY           SKY/WX    TMP DP  RH WIND       PRES   REMARKS
EPHRAIM        NOT AVBL
WASHINGTON ISL NOT AVBL
STURGEON BAY   LGT RAIN  37  26  64 S17G23    30.01F
MANITOWOC      NOT AVBL
SHEBOYGAN      RAIN      36  31  82 S14G22    29.98F
$$

LMZ563-521-522-541>543-240300-
LAKESHORE

STATION/POSITION TIME  TEMP    WIND        PRES    VSBY  WAVE
                       AIR SEA DIR/SP/G                  HT/PER
                 (UTC) (F)     (DEG/KT/KT) (MB)    (MI)  (FT/S)
SHEBOYGAN LKSHOR 0100   39     190/ 13/ 15 1020.1R
KEWAUNEE LKSHORE 0130   38     190/ 14/ 19 1017.4F
NORTHPORT PIER   0140   35     150/  6/ 10 1017.3F
CHAMBERS ISLAND  0140   35     140/  9/ 16 1015.6F
MENOMINEE LKSHOR 0130   35     150/ 15/ 17 1015.7F
$$




USA.gov is the U.S. government's official web portal to all federal, state and local government web resources and services.